[Iaude] MPEC D13: 2024 CS7 [a=0.91,e=0.15,i=24.4,H=25.1]

mpec at cfa.harvard.edu mpec at cfa.harvard.edu
Fri Feb 16 14:08:02 EST 2024


M.P.E.C. 2024-D13                             Issued 2024 February 16, 19:06 UT

     The Minor Planet Electronic Circulars contain information on unusual
         minor planets, routine data on comets and natural satellites,
         and occasional editorial announcements.  They are published
    on behalf of Division F of the International Astronomical Union by the
          Minor Planet Center, Smithsonian Astrophysical Observatory,
                          Cambridge, MA 02138, U.S.A.
			  
             Prepared using the Tamkin Foundation Computer Network

                              MPC at CFA.HARVARD.EDU
            URL https://www.minorplanetcenter.net/    ISSN 1523-6714

                                    2024 CS7                                    


Observations:
     K24C07S*1C2024 02 15.27644909 45 15.667-17 29 50.17         19.02GVED013703
     K24C07S 1C2024 02 15.27874209 45 14.872-17 28 22.19               VED013703
     K24C07S 1C2024 02 15.28103709 45 14.022-17 26 55.03               VED013703
     K24C07S 1C2024 02 15.28333409 45 13.064-17 25 28.02         18.19GVED013703
     K24C07S  C2024 02 15.32968509 44 53.432-16 55 43.61         17.7 GVED013H01
     K24C07S  C2024 02 15.33274209 44 52.211-16 53 44.47         18.5 GVED013H01
     K24C07S KC2024 02 15.34109709 44 49.916-16 48 13.18         18.45GVED013I52
     K24C07S KC2024 02 15.34240209 44 49.391-16 47 22.06         18.33GVED013I52
     K24C07S  C2024 02 15.34293609 44 48.146-16 47 05.06         18.0 GVED013H01
     K24C07S KC2024 02 15.34370809 44 48.865-16 46 30.83         18.36GVED013I52
     K24C07S KC2024 02 15.34501209 44 48.340-16 45 39.78         18.27GVED013I52
     K24C07S  C2024 02 15.35032409 44 45.207-16 42 15.10         18.0 GVED013H01
     K24C07S KC2024 02 15.45740209 44 04.538-15 30 24.59         18.61GVED013I52
     K24C07S KC2024 02 15.45849809 44 04.150-15 29 39.98         18.49GVED013I52
     K24C07S hC2024 02 15.83231109 42 34.54 -10 59 16.8          18.2 GVED013L01
     K24C07S hC2024 02 15.83344709 42 34.09 -10 58 24.1          18.4 GVED013L01
     K24C07S IC2024 02 15.83458509 42 33.66 -10 57 31.7          18.2 GVED013L01
     K24C07S IC2024 02 15.83572209 42 33.17 -10 56 38.9          18.1 GVED013L01
     K24C07S hC2024 02 15.83685709 42 32.75 -10 55 46.9          18.3 GVED013L01
     K24C07S KB2024 02 15.86635 09 42 17.84 -10 32 59.5                XED013M45
     K24C07S KB2024 02 15.87015 09 42 16.27 -10 30 01.3                XED013M45
     K24C07S KB2024 02 15.87431 09 42 14.52 -10 26 46.0          17.7 GXED013M45
     K24C07S KB2024 02 15.92490 09 41 55.58 -09 46 52.9          17.2 GXED013G00
     K24C07S KB2024 02 15.92652 09 41 54.89 -09 45 34.7          17.8 GXED013G00
     K24C07S KB2024 02 15.92815 09 41 54.19 -09 44 17.2          18.1 GXED013G00
     K24C07S 0B2024 02 15.92987 09 41 54.007-09 36 46.40         18.2 VZED013M49
     K24C07S KB2024 02 15.92997 09 41 53.41 -09 42 49.6          17.9 GXED013G00
     K24C07S 0B2024 02 15.93058 09 41 53.693-09 36 12.96         17.9 VZED013M49
     K24C07S 0B2024 02 15.93127 09 41 53.378-09 35 38.76         18.0 VZED013M49
     K24C07S KB2024 02 15.93200 09 41 52.55 -09 41 12.0          17.3 GXED013G00
     K24C07S KB2024 02 15.93406 09 41 51.68 -09 39 33.6          17.4 GXED013G00
     K24C07S KC2024 02 15.96637 09 41 37.30 -09 12 58.6          17.1 rqED013L90
     K24C07S KC2024 02 15.97370 09 41 34.00 -09 06 59.5                qED013L90
     K24C07S KC2024 02 15.98098 09 41 30.80 -09 01 04.0          17.3 rqED013L90
     K24C07S KC2024 02 15.99297 09 41 25.89 -08 51 25.1          18.3 GVED013C82
     K24C07S KC2024 02 15.99753 09 41 23.89 -08 47 40.6                VED013C82
     K24C07S  C2024 02 16.03378 09 41 06.21 -08 18 03.8          18.0 GVED013L54
     K24C07S  C2024 02 16.03582 09 41 05.37 -08 16 23.3          18.1 GVED013L54
     K24C07S  C2024 02 16.03744 09 41 04.74 -08 15 01.8          18.1 GVED013L54
     K24C07S  C2024 02 16.03825 09 41 04.19 -08 14 21.2          18.0 GVED013L54
     K24C07S  C2024 02 16.04152 09 41 02.91 -08 11 36.3          18.2 GVED013L54
     K24C07S  C2024 02 16.04519 09 41 01.27 -08 08 35.3          18.0 GVED013L54
     K24C07S KB2024 02 16.17963 09 40 31.61 -06 13 54.8          17.9 GXED013W13
     K24C07S KB2024 02 16.18783 09 40 27.81 -06 06 48.2          17.7 GXED013W13
     K24C07S KB2024 02 16.19601 09 40 23.96 -05 59 40.1          17.8 GXED013W13
     K24C07S KB2024 02 16.20110 09 40 24.52 -05 55 10.8          17.9 GVED013734
     K24C07S KB2024 02 16.20470 09 40 22.82 -05 52 02.9          17.8 GVED013734
     K24C07S KB2024 02 16.21172 09 40 19.52 -05 45 54.9          18.1 GVED013734
     K24C07S KB2024 02 16.21523 09 40 17.89 -05 42 49.4          17.9 GVED013734
     K24C07S  C2024 02 16.22962 09 40 14.64 -05 29 52.0          17.4 VtED013V27
     K24C07S  C2024 02 16.23367 09 40 12.76 -05 26 20.1          20.7 VtED013V27
     K24C07S KC2024 02 16.23379909 40 12.67 -05 26 08.7          17.9 GXED013858
     K24C07S  C2024 02 16.23409 09 40 12.43 -05 25 56.8          17.6 VtED013V27
     K24C07S KC2024 02 16.23791309 40 10.71 -05 22 30.5          17.8 GXED013858
     K24C07S  C2024 02 16.24007 09 40 09.66 -05 20 41.1          17.1 VtED013V27
     K24C07S KC2024 02 16.24218609 40 08.68 -05 18 43.7          17.8 GXED013858
     K24C07S KB2024 02 16.77546309 36 45.162+03 14 40.76         17.7 GVED013M44
     K24C07S KB2024 02 16.77710109 36 44.236+03 16 21.66         17.4 GVED013M44
     K24C07S KB2024 02 16.77873309 36 43.356+03 18 02.72         17.8 GVED013M44

Observer details:
703 Catalina Sky Survey.  Observer H. Groeller.  Measurers T. Beuden, V. F.
    Carvajal, D. Fay, J. B. Fazekas, D. C. Fuls, A. R. Gibbs, A. D. Grauer, H.
    Groeller, J. K. Hogan, R. A. Kowalski, S. M. Larson, G. J. Leonard, D.
    Rankin, R. L. Seaman, F. C. Shelly, K. W. Wierzchos.  0.68-m Schmidt + 10K
    CCD.
734 Farpoint Observatory, Eskridge.  Observers D. Cromer, G. Hug, D. Goodin,
    R. Valentine.  Measurer D. Cromer.  0.69-m f/3.54 reflector + CMO.
858 Tebbutt Observatory, Edgewood.  Observer F. B. Zoltowski.  0.51-m f/8.1
    Schmidt-Cassegrain + CCD.
C82 Osservatorio Astronomico Nastro Verde, Sorrento.  Observer N. Ruocco.
    0.35-m f/6.3  Schmidt-Cassegrain + CCD.
G00 AZM Martinsberg, Oed.  Observers M. Jaeger, E. Prosperi.  Measurer M.
    Jaeger.  0.28-m f/2.2 reflector + CMO.
H01 Magdalena Ridge Observatory, Socorro.  Observers W. H. Ryan, E. V. Ryan.
    Measurer W. H. Ryan.  2.4-m f/8.9 Ritchey-Chretien + CCD.
I52 Steward Observatory, Mt. Lemmon Station.  Observer J. B. Fazekas.
    Measurers E. C. Beshore, D. Fay, J. B. Fazekas, D. C. Fuls, A. R. Gibbs,
    A. D. Grauer, H. Groeller, J. K. Hogan, R. A. Kowalski, S. M. Larson, G.
    J. Leonard, D. Rankin, R. L. Seaman, F. C. Shelly, K. W. Wierzchos.  1.0-m
    prime focus + CCD.
L01 Visnjan Observatory, Tican.  Observer K. Korlevic.  1.0-m f/2.9 reflector
    + CCD.
L54 Berthelot Observatory, Hunedoara.  Observers A. Sonka, A. Nedelcu.
    Measurer A. Sonka.  0.50-m f/8 reflector + CCD.
L90 ABObservatory, Rosarno.  Observer A. Brosio.  0.30-m f/3.9 reflector +
    CCD.
M44 Al-Khatim Observatory, Abu Dhabi.  Observer M. Odeh.  0.36-m f/7.7 SC +
    CMO.
M45 Starhopper Observatory, Sfantu Gheorghe.  Observer F. Ursache.  0.41-m
    f/7.5 reflector + CMO.
M49 IAS Remote Observatory, Hakos.  Observers D. Husar, M. Junius.  Measurer
    D. Husar.  0.25-m f/4.5 reflector + CMO.
V27 North Mesa Observatory, Los Alamos.  Observer B. K. Kendrick.  0.25-m f/6
    reflector + CCD.
W13 Star Quarry Observatory, Bedford.  Observer C. J. Horowitz.  0.20-m f/2.
    SCT + CMO.

Orbital elements:
2024 CS7                                                 Earth MOID = 0.0208 AU
Epoch 2024 Mar. 31.0 TT = JDT 2460400.5                 MPC                     
M 276.20780              (2000.0)            P               Q                  
n   1.14332784     Peri.  143.86811     +0.39590074     +0.89143502             
a   0.9057789      Node   147.71320     -0.90919777     +0.41422215             
e   0.1528952      Incl.   24.37707     -0.12892640     -0.18374880             
P   0.86           H   25.11          G   0.15           U   6                  
Residuals in seconds of arc
240215 703  1.1-  0.1+    240215 M45  0.3+  0.8+    240216 L54  0.4+  1.8+
240215 703  0.4+  0.7+    240215 M45  0.4+  0.7+    240216 L54  0.8-  0.7-
240215 703  1.3+  0.3+    240215 G00  0.0   0.0     240216 W13  0.0   0.6+
240215 703  0.6+  0.4-    240215 G00  0.1+  0.7+    240216 W13  0.2+  0.3-
240215 H01  0.0   0.0     240215 G00  0.0   0.1+    240216 W13  0.2-  0.1+
240215 H01  0.0   0.1-    240215 M49  0.4-  0.3+    240216 734  0.2+  0.7+
240215 I52  0.0   0.2-    240215 G00  0.0   0.4+    240216 734  0.2-  0.3-
240215 I52  0.0   0.2-    240215 M49  0.2-  0.2-    240216 734  0.5-  1.2-
240215 H01  0.0   0.2+    240215 M49  0.0   0.6+    240216 734  0.2-  0.4-
240215 I52  0.0   0.1-    240215 G00  0.2+  0.6+    240216 V27  0.6+  1.8+
240215 I52  0.1-  0.2-    240215 G00  0.4+  0.2+    240216 V27  1.2+  0.8-
240215 H01  0.0   0.1-    240215 L90  0.1+  1.9-    240216 858  0.0   0.1+
240215 I52  0.2-  0.1-    240215 L90  0.1+  0.3+    240216 V27  0.8-  0.3+
240215 I52  0.0   0.6-    240215 L90  1.4+  0.4+    240216 858  0.1-  0.1+
240215 L01  0.1-  0.1+    240215 C82  0.1-  0.8+    240216 V27  0.3+  1.2-
240215 L01  0.2-  0.3+    240215 C82  0.5+  1.3+    240216 858  0.1+  0.1+
240215 L01  0.1+  0.1+    240216 L54  0.3+  0.4+    240216 M44  0.3+  0.8+
240215 L01  0.5-  0.3+    240216 L54  0.8+  0.7-    240216 M44  0.0   0.1+
240215 L01  0.1-  0.2-    240216 L54  1.7+  0.0     240216 M44  0.3+  0.2-
240215 M45  0.2-  0.8+    240216 L54  1.3-  0.2+

Ephemeris:
2024 CS7                 a,e,i = 0.91, 0.15, 24                  q = 0.7673
Date    TT    R. A. (2000) Decl.     Delta      r    Elong.  Phase     V
2024 01 17    10 09 22.0 -55 32 15   0.2307  1.0418    98.1    69.2    24.4
...
2024 02 01    10 08 57.6 -53 02 12   0.1269  1.0311   107.8    65.5    23.0
...
2024 02 09    10 02 08.0 -45 52 39   0.06968 1.0217   118.6    58.0    21.5
...
2024 02 15    09 46 28.0 -20 14 04   0.03031 1.0130   146.7    32.3    18.9
2024 02 16    09 41 27.3 -08 41 59   0.02547 1.0115   158.4    21.1    18.2
2024 02 17    09 34 59.1 +07 14 10   0.02211 1.0099   172.2     7.6    17.4
...
2024 02 23    05 48 08.8 +83 16 57   0.04286 0.9994   102.6    75.0    20.9
...
2024 03 02    23 07 40.8 +75 32 15   0.09795 0.9836    82.8    91.5    23.3
...
2024 03 17    22 39 26.9 +68 39 51   0.2005  0.9489    71.0    97.5    25.0

A. U. Tomatic                (C) Copyright 2024 MPC           M.P.E.C. 2024-D13





More information about the Iaude mailing list